This is the latest recevied weather packets stored in our database for station/object N4ZIQ. If no packets are shown the sender has not sent any weather packets the latest 10 day(s).
| Time | Temp. | Humidity | Pressure | Rain* | Wind** | Luminosity | Snow |
|---|---|---|---|---|---|---|---|
| 1778152249 | 15.56° C | 94% | 1016.1 hPa | 0 mm | - | 33 W/m² | - |
| 1778151946 | 15.56° C | 94% | 1016.1 hPa | 0 mm | - | 26 W/m² | - |
| 1778151657 | 15.56° C | 94% | 1016 hPa | 0 mm | - | 21 W/m² | - |
| 1778151350 | 15.56° C | 94% | 1016.1 hPa | 0 mm | - | 18 W/m² | - |
| 1778151045 | 15° C | 94% | 1016.1 hPa | 0 mm | - | 12 W/m² | - |
| 1778150753 | 15° C | 94% | 1015.9 hPa | 0 mm | - | 9 W/m² | - |
| 1778150447 | 15° C | 94% | 1015.9 hPa | 0 mm | - | 0 W/m² | - |
| 1778150146 | 15.56° C | 94% | 1015.9 hPa | 0 mm | - | 0 W/m² | - |
| 1778149851 | 15° C | 94% | 1016 hPa | 0 mm | - | 0 W/m² | - |
| 1778149545 | 15° C | 93% | 1015.8 hPa | 0 mm | - | 0 W/m² | - |
| 1778149246 | 15.56° C | 94% | 1015.7 hPa | 0 mm | - | 0 W/m² | - |
| 1778148964 | 15.56° C | 94% | 1015.7 hPa | 0 mm | - | 0 W/m² | - |
| 1778148648 | 15.56° C | 94% | 1015.6 hPa | 0 mm | - | 0 W/m² | - |
| 1778148346 | 15.56° C | 94% | 1015.6 hPa | 0 mm | - | 0 W/m² | - |
| 1778148053 | 15.56° C | 94% | 1015.5 hPa | 0 mm | - | 0 W/m² | - |
| 1778147748 | 15.56° C | 93% | 1015.6 hPa | 0 mm | - | 0 W/m² | - |
| 1778147448 | 15.56° C | 93% | 1015.4 hPa | 0 mm | - | 0 W/m² | - |
| 1778147157 | 15.56° C | 93% | 1015.4 hPa | 0 mm | - | 0 W/m² | - |
| 1778146846 | 15.56° C | 93% | 1015.3 hPa | 0 mm | - | 0 W/m² | - |
| 1778146548 | 15.56° C | 93% | 1015.1 hPa | 0 mm | - | 0 W/m² | - |
| 1778146252 | 15.56° C | 93% | 1015.1 hPa | 0 mm | - | 0 W/m² | - |
| 1778145945 | 15.56° C | 93% | 1015.2 hPa | 0 mm | - | 0 W/m² | - |
| 1778145645 | 16.11° C | 93% | 1015.3 hPa | 0 mm | - | 0 W/m² | - |
| 1778145363 | 16.11° C | 93% | 1015.2 hPa | 0 mm | - | 0 W/m² | - |
| 1778145045 | 16.11° C | 93% | 1015.3 hPa | 0 mm | - | 0 W/m² | - |
* Rain latest hour (hover to see other rain measurements)
** Current wind speed in m/s (hover to see current wind gust speed)